Location: Shenandoah County Park
(38.9356°N, 78.4524°W)
Time: 11:08:01
(UTC-04:00)

Vanguard 1 Rocket - Pass Details

Date: 07 February 2023
Orbit: 652 x 4223 km, 34.3° (Epoch: 24 March)

Event Time Altitude Azimuth Distance (km) Brightness Sun altitude
Rises 10:10:38 0° 217° (SW) 3,530 10.6 27.0°
Reaches altitude 10° 10:12:56 10° 207° (SSW) 2,840 10.4 27.3°
Maximum altitude 10:19:10 35° 143° (SE) 2,218 12.2 28.0°
Drops below altitude 10° 10:29:57 10° 84° (E) 4,976 11.6 29.2°
Sets 10:35:32 0° 78° (ENE) 6,622 12.0 29.8°
